Davenport, IA

2:38 PM CST on February 27, 2017 (GMT -0600)
Davenport Municipal

Weather History for KDVN - April, 2013

Change the Weather History Date:

Tuesday, April 23, 2013

  Actual Average Record
Temperature  
Mean Temperature 45 °F 53 °F  
Max Temperature 52 °F 64 °F 84 °F (1960)
Min Temperature 38 °F 42 °F 24 °F (2015)
Degree Days  
Heating Degree Days 20 12  
Month to date heating degree days 458 369  
Since 1 July heating degree days 6312 6227  
Cooling Degree Days 0 0  
Month to date cooling degree days 0 0  
Year to date cooling degree days 0 0  
Moisture  
Dew Point 37 °F    
Average Humidity 86    
Maximum Humidity 96    
Minimum Humidity 76    
Precipitation  
Precipitation 0.37 in 0.12 in 1.67 in (1950)
Month to date precipitation 6.75 2.45  
Year to date precipitation 12.45 7.50  
Snow  
Snow T in - - ()
Month to date snowfall T  
Since 1 July snowfall 27.1  
Snow Depth 0.00 in    
Sea Level Pressure  
Sea Level Pressure 30.01 in    
Wind  
Wind Speed 12 mph (NNW)    
Max Wind Speed 22 mph    
Max Gust Speed 26 mph    
Visibility 7 miles    
Events Rain    
T = Trace of Precipitation, MM = Missing Value Source: NWS Daily Summary

Daily Weather History Graph

Daily Weather History Graph

Search for Another Location

Airport or City:

Trip Planner

Search our weather history database for the weather conditions in past years. The results will help you decide how hot, cold, wet, or windy it might be!

Date:

Astronomy

Apr. 23, 2013 Rise Set
Actual Time 6:09 AM CDT 7:52 PM CDT
Civil Twilight 5:40 AM CDT 8:21 PM CDT
Nautical Twilight 5:04 AM CDT 8:57 PM CDT
Astronomical Twilight 4:26 AM CDT 9:35 PM CDT
Moon 5:45 PM CDT (4/23) 4:39 AM CDT (4/23)
Length of Visible Light 14h 41m
Length of Day
13h 42m
Waxing Gibbous, 94% of the Moon is Illuminated
Apr 23
Waxing Gibbous
Apr 25
Full
May 2
Last Quarter
May 9
New
May 17
First Quarter

Hourly Weather History & Observations

Time (CDT) Temp. Windchill Dew Point Humidity Pressure Visibility Wind Dir Wind Speed Gust Speed Precip Events Conditions
12:52 AM 51.1 °F - 48.0 °F 89% 30.00 in 8.0 mi SE 5.8 mph - 0.00 in   Overcast
1:52 AM 50.0 °F - 48.0 °F 93% 29.97 in 9.0 mi SE 4.6 mph - N/A   Overcast
3:52 AM 50.0 °F - 46.0 °F 86% 29.97 in 7.0 mi SSW 3.5 mph - N/A   Overcast
4:52 AM 48.9 °F - 46.0 °F 90% 29.96 in 5.0 mi WNW 6.9 mph - N/A   Overcast
5:11 AM 48.2 °F - 44.6 °F 87% 29.98 in 6.0 mi WNW 16.1 mph 23.0 mph N/A   Overcast
5:47 AM 44.6 °F 38.1 °F 41.0 °F 87% 30.00 in 8.0 mi NW 13.8 mph 21.9 mph N/A   Overcast
5:52 AM 43.0 °F 35.7 °F 41.0 °F 93% 30.00 in 9.0 mi NW 15.0 mph - N/A   Overcast
6:26 AM 42.8 °F 35.4 °F 39.2 °F 87% 29.98 in 10.0 mi NW 15.0 mph - N/A   Mostly Cloudy
6:52 AM 41.0 °F 32.5 °F 37.0 °F 86% 29.99 in 10.0 mi NNW 17.3 mph - N/A   Mostly Cloudy
7:52 AM 39.0 °F 29.9 °F 35.1 °F 86% 30.00 in 10.0 mi NW 17.3 mph 24.2 mph N/A   Overcast
8:52 AM 39.0 °F 29.6 °F 35.1 °F 86% 30.01 in 10.0 mi NNW 18.4 mph - 0.00 in Rain Light Rain
9:26 AM 39.2 °F 31.6 °F 35.6 °F 87% 30.01 in 8.0 mi NNW 12.7 mph - 0.01 in Rain Light Rain
9:52 AM 37.9 °F 29.2 °F 35.1 °F 89% 30.04 in 2.5 mi NNW 15.0 mph - 0.03 in Rain Rain
9:57 AM 37.4 °F 28.5 °F 35.6 °F 93% 30.03 in 3.0 mi NW 15.0 mph - 0.01 in Rain Rain
10:47 AM 37.4 °F 29.3 °F 35.6 °F 93% 30.02 in 4.0 mi NNW 12.7 mph - 0.09 in Rain Light Rain
10:52 AM 37.9 °F 29.2 °F 35.1 °F 89% 30.04 in 4.0 mi NNW 15.0 mph - 0.10 in Rain Rain
11:26 AM 37.4 °F 28.2 °F 33.8 °F 87% 30.03 in 4.0 mi NNW 16.1 mph - 0.06 in Rain Rain
11:52 AM 37.9 °F 28.9 °F 35.1 °F 89% 30.04 in 3.0 mi NNW 16.1 mph - 0.11 in Rain Rain
12:04 PM 37.4 °F 28.5 °F 35.6 °F 93% 30.02 in 3.0 mi NNW 15.0 mph - 0.02 in Rain Rain
12:15 PM 37.4 °F 28.2 °F 35.6 °F 93% 30.03 in 3.0 mi NNW 16.1 mph - 0.04 in Rain Rain
12:35 PM 37.4 °F 28.2 °F 35.6 °F 93% 30.02 in 4.0 mi NNW 16.1 mph - 0.06 in Rain Light Rain
12:52 PM 39.0 °F 30.6 °F 35.1 °F 86% 30.03 in 6.0 mi NNW 15.0 mph - 0.07 in Rain Light Rain
1:52 PM 37.9 °F 29.6 °F 35.1 °F 89% 30.01 in 5.0 mi NNW 13.8 mph - 0.02 in Rain Light Rain
2:14 PM 37.4 °F 28.5 °F 35.6 °F 93% 30.00 in 4.0 mi NNW 15.0 mph - 0.01 in Rain Light Rain
2:35 PM 37.4 °F 28.5 °F 35.6 °F 93% 29.99 in 4.0 mi NNW 15.0 mph - 0.02 in Rain Light Rain
2:52 PM 37.9 °F 29.2 °F 35.1 °F 89% 30.00 in 7.0 mi NNW 15.0 mph - 0.03 in Rain Light Rain
3:17 PM 39.2 °F 29.8 °F 35.6 °F 87% 29.98 in 8.0 mi NNW 18.4 mph - 0.00 in Rain Light Rain
3:36 PM 39.2 °F 30.8 °F 35.6 °F 87% 29.98 in 9.0 mi NNW 15.0 mph - 0.00 in   Overcast
3:52 PM 39.9 °F 31.1 °F 35.1 °F 83% 29.99 in 7.0 mi NNW 17.3 mph - 0.00 in   Overcast
4:52 PM 39.9 °F 31.1 °F 34.0 °F 79% 30.00 in 9.0 mi NNW 17.3 mph - 0.00 in   Overcast
5:17 PM 39.2 °F 30.8 °F 33.8 °F 81% 29.99 in 5.0 mi North 15.0 mph - 0.00 in Rain Light Rain
5:52 PM 39.9 °F 32.5 °F 35.1 °F 83% 30.01 in 6.0 mi North 12.7 mph - 0.01 in Rain Light Rain
6:28 PM 39.2 °F 31.6 °F 33.8 °F 81% 29.99 in 9.0 mi North 12.7 mph - 0.00 in   Overcast
6:52 PM 39.0 °F 32.3 °F 34.0 °F 82% 30.01 in 10.0 mi North 10.4 mph - 0.00 in   Overcast
7:52 PM 39.0 °F 35.7 °F 35.1 °F 86% 30.02 in 10.0 mi NNW 4.6 mph - N/A   Overcast
8:52 PM 39.9 °F 34.5 °F 34.0 °F 79% 30.02 in 10.0 mi NNW 8.1 mph - N/A   Overcast
9:52 PM 39.0 °F 32.3 °F 34.0 °F 82% 30.04 in 10.0 mi NNW 10.4 mph - N/A   Overcast
10:52 PM 39.0 °F 31.4 °F 32.0 °F 76% 30.04 in 10.0 mi NNW 12.7 mph - N/A   Overcast
11:52 PM 39.0 °F 31.4 °F 32.0 °F 76% 30.06 in 10.0 mi NNW 12.7 mph - N/A   Overcast